Lakewood, Ohio, United States (44107)
Lat: 41.48N, Lon: 81.8W
Wx Zone: OHZ011
Local Info
Past Weather Observations for Today

NOTE: This archive is for the closest National Weather Service station to Lakewood. Information may differ from the station used for current weather conditions.

Click here for Long-term Archive

Time Weather Temperature Dewpoint Humidity Pressure Winds Precip Visibility
18:51
Mostly Cloudy
23°F / -5°C 10°F / -12°C 58% 30.48 in
(1032 mb)
SW 5.8 mph
(SW 9 kph)
- 10SM
17:51
Partly Cloudy
25°F / -4°C 10°F / -12°C 54% 30.45 in
(1031 mb)
NW 8.1 mph
(NW 13 kph)
- 10SM
16:51
Partly Cloudy
28°F / -2°C 10°F / -12°C 47% 30.45 in
(1031 mb)
W 9.2 mph
(W 15 kph)
- 10SM
15:51
Partly Cloudy
28°F / -2°C 10°F / -12°C 47% 30.48 in
(1032 mb)
W 12.7 mph
(W 20 kph)
- 10SM
14:51
Partly Cloudy
28°F / -2°C 10°F / -12°C 47% 30.48 in
(1032 mb)
SSW 8.1 mph
(SSW 13 kph)
- 10SM
13:51
Partly Cloudy
28°F / -2°C 10°F / -12°C 47% 30.48 in
(1032 mb)
W 11.5 mph
(W 19 kph)
- 10SM
12:51
Partly Cloudy
27°F / -3°C 12°F / -11°C 54% 30.51 in
(1033 mb)
SSW 12.7 mph
(SSW 20 kph)
- 10SM
11:51
Partly Cloudy
27°F / -3°C 12°F / -11°C 54% 30.48 in
(1032 mb)
Variable 5.8 mph
(Variable 9 kph)
- 10SM
10:51
Partly Cloudy
25°F / -4°C 14°F / -10°C 63% 30.48 in
(1032 mb)
WNW 10.4 mph
(WNW 17 kph)
- 10SM
09:51
Mostly Cloudy
21°F / -6°C 16°F / -9°C 80% 30.45 in
(1031 mb)
W 11.5 mph
(W 19 kph)
0.00 in
(0.00 mm)
7SM
08:51
Mostly Cloudy
Light Snow
21°F / -6°C 16°F / -9°C 80% 30.45 in
(1031 mb)
SW 9.2 mph
(SW 15 kph)
0.00 in
(0.00 mm)
5SM
07:51
Partly Cloudy
19°F / -7°C 14°F / -10°C 79% 30.42 in
(1030 mb)
SSW 12.7 mph
(SSW 20 kph)
0.00 in
(0.00 mm)
7SM
07:11
Mostly Cloudy
Light Snow
19°F / -7°C 16°F / -9°C 86% 30.39 in
(1029 mb)
SSW 12.7 mph
(SSW 20 kph)
0.00 in
(0.00 mm)
5SM
07:02
Overcast
Light Snow
21°F / -6°C 16°F / -9°C 80% 30.39 in
(1029 mb)
SSW 12.7 mph
(SSW 20 kph)
0.00 in
(0.00 mm)
2 1/2SM
06:51
Overcast
Light Snow
21°F / -6°C 16°F / -9°C 80% 30.39 in
(1029 mb)
SSW 13.8 mph
(SSW 22 kph)
0.00 in
(0.00 mm)
4SM
06:30
Overcast
21°F / -6°C 16°F / -9°C 80% 30.39 in
(1029 mb)
SSW 10.4 mph
(SSW 17 kph)
- 8SM
06:03
Overcast
19°F / -7°C 16°F / -9°C 86% 30.36 in
(1028 mb)
SSW 9.2 mph
(SSW 15 kph)
- 9SM
05:51
Overcast
19°F / -7°C 16°F / -9°C 86% 30.36 in
(1028 mb)
SSW 9.2 mph
(SSW 15 kph)
0.00 in
(0.00 mm)
8SM
04:56
Mostly Cloudy
Light Snow
19°F / -7°C 14°F / -10°C 79% 30.3 in
(1026 mb)
SSW 11.5 mph
(SSW 19 kph)
0.00 in
(0.00 mm)
7SM
04:51
Mostly Cloudy
Light Snow
19°F / -7°C 16°F / -9°C 86% 30.33 in
(1027 mb)
SSW 12.7 mph
(SSW 20 kph)
0.00 in
(0.00 mm)
7SM
03:51
Overcast
Light Snow
21°F / -6°C 16°F / -9°C 80% 30.3 in
(1026 mb)
W 10.4 mph
(W 17 kph)
0.00 in
(0.00 mm)
6SM
03:23
Overcast
Light Snow
21°F / -6°C 16°F / -9°C 80% 30.3 in
(1026 mb)
W 11.5 mph
(W 19 kph)
0.00 in
(0.00 mm)
5SM
02:51
Overcast
Light Snow
21°F / -6°C 16°F / -9°C 80% 30.3 in
(1026 mb)
W 13.8 mph
(W 22 kph)
0.00 in
(0.00 mm)
4SM
01:51
Overcast
Light Snow
21°F / -6°C 18°F / -8°C 86% 30.27 in
(1025 mb)
WNW 16.1 mph
(WNW 26 kph)
0.00 in
(0.00 mm)
7SM
01:34
Overcast
21°F / -6°C 18°F / -8°C 86% 30.27 in
(1025 mb)
W 12.7 mph
(W 20 kph)
- 7SM
01:24
Overcast
21°F / -6°C 18°F / -8°C 86% 30.27 in
(1025 mb)
SSW 11.5 mph
(SSW 19 kph)
- 7SM
00:51
Overcast
Fog And Mist
21°F / -6°C 18°F / -8°C 86% 30.27 in
(1025 mb)
SSW 11.5 mph
(SSW 19 kph)
- 6SM
Time Weather Temperature Dewpoint Humidity Pressure Winds Precip Visibility


Weather for websites

WeatherForYou.com, LLC is not responsible for any damages or problems caused by this service. Current weather conditions are obtained from the closest station including government and personal stations which may have varying degrees of accuracy. Weather forecasts are derived from the NOAA NDFD. Like all things, this site belongs to Jesus Christ... He just trusts me to maintain it. If you have any questions or comments email webmaster@weatherforyou.com

Copyright © 2015, WeatherForYou.com LLC. All rights reserved.